EW1454 Weather Reports


time (UTC)temp
C
wind
direction
speed
KPH
gust
KPH
rain 1hr
cm
rain 24hr
cm
rain mn
cm
humidity
%
barometer
mb
20260504042048 5 121 0.0 4.8 0.00 0.00 0.00 76 1012.6
20260504041548 5 91 3.2 4.8 0.00 0.00 0.00 76 1012.7
20260504041110 5 93 1.6 6.4 0.00 0.00 0.00 75 1012.8
20260504041052 5 46 1.6 4.8 0.00 0.00 0.00 75 1012.7
20260504040047 6 76 1.6 6.4 0.00 0.00 0.00 75 1012.6
20260504035814 6 79 1.6 3.2 0.00 0.00 0.00 75 1012.7
20260504035047 6 49 0.0 4.8 0.00 0.00 0.00 75 1012.9
20260504035032 6 67 1.6 4.8 0.00 0.00 0.00 74 1012.9
20260504034050 6 65 1.6 4.8 0.00 0.00 0.00 74 1012.8
20260504033547 6 67 1.6 4.8 0.00 0.00 0.00 74 1012.7
20260504033047 6 35 0.0 4.8 0.00 0.00 0.00 74 1012.8
20260504032551 6 39 3.2 6.4 0.00 0.00 0.00 73 1013.0
20260504032047 6 101 0.0 6.4 0.00 0.00 0.00 73 1012.8
20260504031548 6 53 3.2 3.2 0.00 0.00 0.00 72 1013.1
20260504031050 6 75 0.0 3.2 0.00 0.00 0.00 72 1013.0
20260504031031 6 57 1.6 3.2 0.00 0.00 0.00 72 1012.8
20260504030310 6 87 1.6 3.2 0.00 0.00 0.00 72 1012.9
20260504025550 6 87 1.6 3.2 0.00 0.00 0.00 72 1012.8
20260504025047 6 69 1.6 4.8 0.00 0.00 0.00 71 1012.9
20260504024550 7 79 3.2 4.8 0.00 0.00 0.00 71 1013.0
20260504024051 7 61 1.6 3.2 0.00 0.00 0.00 70 1013.0
20260504024034 7 75 1.6 3.2 0.00 0.00 0.00 68 1013.0
20260504023048 7 75 1.6 4.8 0.00 0.00 0.00 67 1013.1
20260504022550 7 93 3.2 4.8 0.00 0.00 0.00 67 1012.9
20260504022047 7 108 1.6 4.8 0.00 0.00 0.00 67 1013.0
20260504021548 7 101 1.6 4.8 0.00 0.00 0.00 68 1013.2
20260504021050 7 57 3.2 4.8 0.00 0.00 0.00 68 1013.1
20260504020548 7 49 0.0 4.8 0.00 0.00 0.00 67 1013.2
20260504020047 7 94 0.0 3.2 0.00 0.00 0.00 66 1013.3
20260504015553 7 89 0.0 4.8 0.00 0.00 0.00 65 1013.3
20260504015049 7 54 3.2 4.8 0.00 0.00 0.00 66 1013.0
20260504014818 8 115 1.6 4.8 0.00 0.00 0.00 66 1013.1
20260504014051 8 58 1.6 4.8 0.00 0.00 0.00 65 1013.0
20260504013547 8 86 1.6 3.2 0.00 0.00 0.00 66 1013.0
20260504013048 8 76 0.0 3.2 0.00 0.00 0.00 64 1013.2
20260504012552 8 86 3.2 3.2 0.00 0.00 0.00 63 1013.0
20260504012047 8 68 1.6 3.2 0.00 0.00 0.00 62 1013.0
20260504011547 8 84 1.6 3.2 0.00 0.00 0.00 61 1013.1
20260504011051 8 81 3.2 3.2 0.00 0.00 0.00 62 1012.9
20260504010547 9 91 1.6 3.2 0.00 0.00 0.00 61 1012.9
20260504010047 9 89 0.0 3.2 0.00 0.00 0.00 59 1012.9
20260504005551 9 107 1.6 3.2 0.00 0.00 0.00 58 1012.8
20260504005047 10 97 3.2 3.2 0.00 0.00 0.00 56 1012.8
20260504004549 10 128 1.6 3.2 0.00 0.00 0.00 56 1013.0
20260504004051 10 66 0.0 3.2 0.00 0.00 0.00 55 1012.8
20260504003811 11 51 0.0 4.8 0.00 0.00 0.00 50 1012.7
20260504003047 11 24 0.0 4.8 0.00 0.00 0.00 52 1012.8
20260504002550 11 42 0.0 4.8 0.00 0.00 0.00 50 1012.7
20260504002047 12 205 1.6 9.7 0.00 0.00 0.00 49 1012.7
20260504001548 12 136 3.2 9.7 0.00 0.00 0.00 47 1012.7
20260504001050 12 359 4.8 9.7 0.00 0.00 0.00 45 1012.6
20260504000548 12 170 3.2 8.0 0.00 0.00 0.00 45 1012.7
20260504000310 12 217 1.6 14.5 0.00 0.00 0.00 42 1012.6
20260503235551 13 17 3.2 14.5 0.00 0.00 0.00 44 1012.8
20260503235047 13 189 1.6 12.9 0.00 0.00 0.00 41 1012.7
20260503234549 13 119 3.2 12.9 0.00 0.00 0.00 42 1012.5
20260503234052 13 231 9.7 12.9 0.00 0.00 0.00 41 1012.9
20260503233548 13 345 3.2 9.7 0.00 0.00 0.00 42 1012.7
20260503233047 13 191 3.2 11.3 0.00 0.00 0.00 40 1012.7
20260503232550 13 152 1.6 14.5 0.00 0.00 0.00 40 1013.1
20260503232047 13 289 4.8 14.5 0.00 0.00 0.00 41 1013.0
20260503231549 13 73 1.6 19.3 0.00 0.00 0.00 40 1012.8
20260503231051 13 63 0.0 19.3 0.00 0.00 0.00 39 1012.5
20260503230600 13 340 0.0 14.5 0.00 0.00 0.00 39 1012.8
20260503230047 13 355 4.8 17.7 0.00 0.00 0.00 40 1012.7
20260503225552 13 305 4.8 20.9 0.00 0.00 0.00 39 1012.8
20260503225048 14 343 6.4 20.9 0.00 0.00 0.00 38 1012.9
20260503224549 14 114 4.8 14.5 0.00 0.00 0.00 38 1012.9
20260503224051 15 125 3.2 17.7 0.00 0.00 0.00 38 1013.0
20260503223551 15 137 3.2 17.7 0.00 0.00 0.00 37 1012.9
20260503223049 14 112 6.4 17.7 0.00 0.00 0.00 38 1013.3
20260503222551 14 89 3.2 14.5 0.00 0.00 0.00 38 1013.0
20260503222047 14 195 3.2 14.5 0.00 0.00 0.00 38 1013.3
20260503221547 14 321 3.2 14.5 0.00 0.00 0.00 38 1013.2
20260503221323 14 215 3.2 16.1 0.00 0.00 0.00 37 1013.2
20260503220548 14 231 3.2 16.1 0.00 0.00 0.00 38 1013.1
20260503220047 14 226 3.2 14.5 0.00 0.00 0.00 38 1013.3
20260503215552 14 271 4.8 25.7 0.00 0.00 0.00 37 1013.0
20260503215048 15 169 1.6 25.7 0.00 0.00 0.00 36 1013.0
20260503214549 15 141 0.0 12.9 0.00 0.00 0.00 38 1013.0
20260503214050 13 312 6.4 20.9 0.00 0.00 0.00 38 1013.0
20260503213548 14 272 3.2 30.6 0.00 0.00 0.00 38 1013.0
20260503213048 14 200 8.0 30.6 0.00 0.00 0.00 38 1012.8
20260503212550 15 255 14.5 17.7 0.00 0.00 0.00 38 1012.9
20260503212047 15 142 4.8 17.7 0.00 0.00 0.00 37 1012.7
20260503211809 14 217 4.8 17.7 0.00 0.00 0.00 38 1012.9
20260503211540 15 215 3.2 30.6 0.00 0.00 0.00 37 1013.0
20260503210548 15 303 12.9 30.6 0.00 0.00 0.00 37 1013.1
20260503210048 15 220 4.8 24.1 0.00 0.00 0.00 38 1012.8
20260503205551 14 89 3.2 24.1 0.00 0.00 0.00 38 1013.1
20260503205048 13 285 9.7 24.1 0.00 0.00 0.00 38 1013.1
20260503204549 14 345 6.4 20.9 0.00 0.00 0.00 37 1013.3
20260503204052 15 295 16.1 22.5 0.00 0.00 0.00 36 1013.3
20260503203547 15 284 6.4 22.5 0.00 0.00 0.00 37 1013.3
20260503203309 16 201 6.4 17.7 0.00 0.00 0.00 36 1013.1
20260503202551 15 158 6.4 20.9 0.00 0.00 0.00 38 1013.2
20260503202047 15 230 4.8 20.9 0.00 0.00 0.00 37 1013.4
20260503201548 15 224 6.4 25.7 0.00 0.00 0.00 37 1013.5
20260503201051 15 234 14.5 25.7 0.00 0.00 0.00 36 1013.5
20260503200548 14 213 0.0 29.0 0.00 0.00 0.00 41 1013.4
20260503200047 14 151 4.8 29.0 0.00 0.00 0.00 40 1013.5
20260503195551 16 182 4.8 20.9 0.00 0.00 0.00 36 1013.6
20260503195048 15 258 4.8 20.9 0.00 0.00 0.00 37 1013.8
20260503194547 15 168 1.6 17.7 0.00 0.00 0.00 39 1013.9
20260503194052 15 329 3.2 19.3 0.00 0.00 0.00 36 1014.0
20260503193817 15 262 6.4 20.9 0.00 0.00 0.00 35 1013.9
20260503193047 15 348 1.6 20.9 0.00 0.00 0.00 37 1013.9
20260503192552 15 244 8.0 16.1 0.00 0.00 0.00 37 1014.2
20260503192048 14 313 9.7 20.9 0.00 0.00 0.00 36 1014.3
20260503191548 15 44 1.6 20.9 0.00 0.00 0.00 40 1014.3
20260503191053 15 348 4.8 25.7 0.00 0.00 0.00 37 1014.3
20260503190547 14 197 6.4 25.7 0.00 0.00 0.00 37 1014.3
20260503190050 14 123 6.4 22.5 0.00 0.00 0.00 40 1014.7
20260503185553 14 311 9.7 16.1 0.00 0.00 0.00 38 1014.7
20260503185315 14 220 6.4 19.3 0.00 0.00 0.00 39 1014.6
20260503184547 13 195 3.2 19.3 0.00 0.00 0.00 39 1014.6
20260503184052 14 163 8.0 20.9 0.00 0.00 0.00 38 1014.5
20260503183548 13 311 9.7 24.1 0.00 0.00 0.00 39 1014.9
20260503183047 15 267 3.2 24.1 0.00 0.00 0.00 37 1015.0
20260503182551 15 135 6.4 17.7 0.00 0.00 0.00 40 1014.8
20260503182048 14 68 6.4 17.7 0.00 0.00 0.00 40 1015.1
20260503181547 14 338 3.2 16.1 0.00 0.00 0.00 39 1014.8
20260503181053 14 208 4.8 16.1 0.00 0.00 0.00 38 1014.9
20260503180548 13 144 8.0 14.5 0.00 0.00 0.00 38 1015.1
20260503180049 14 32 4.8 19.3 0.00 0.00 0.00 42 1015.1
20260503175551 13 266 9.7 32.2 0.00 0.00 0.00 38 1015.3
20260503175049 14 272 4.8 32.2 0.00 0.00 0.00 38 1015.2
20260503174548 13 253 4.8 19.3 0.00 0.00 0.00 40 1015.1
20260503174051 12 165 6.4 24.1 0.00 0.00 0.00 41 1015.5
20260503173547 13 102 4.8 24.1 0.00 0.00 0.00 39 1015.3
20260503173047 13 221 4.8 24.1 0.00 0.00 0.00 40 1015.1
20260503172551 13 160 3.2 22.5 0.00 0.00 0.00 44 1015.3
20260503172047 12 212 22.5 22.5 0.00 0.00 0.00 41 1015.5
20260503171547 12 215 6.4 17.7 0.00 0.00 0.00 39 1015.4
20260503171051 12 58 3.2 19.3 0.00 0.00 0.00 43 1015.7
20260503170600 12 339 3.2 19.3 0.00 0.00 0.00 40 1015.7
20260503150549 10 188 0.0 20.9 0.00 0.00 0.00 45 1016.5
20260503150320 10 167 6.4 27.4 0.00 0.00 0.00 49 1016.4
20260503131051 7 0 8.0 12.9 0.00 0.00 0.00 68 1016.9
20260503130547 6 317 3.2 12.9 0.00 0.00 0.00 69 1017.0
20260503110548 0 68 1.6 4.8 0.00 0.00 0.00 98 1016.3
20260503090306 0 86 1.6 4.8 0.00 0.00 0.00 97 1015.6
20260503081547 0 84 3.2 4.8 0.00 0.00 0.00 97 1015.1
20260503081050 0 99 0.0 4.8 0.00 0.00 0.00 97 1015.3
20260503080547 0 89 0.0 4.8 0.00 0.00 0.00 97 1015.5
20260503072817 1 93 3.2 4.8 0.00 0.00 0.00 97 1015.2
20260503072048 0 49 3.2 4.8 0.00 0.00 0.00 97 1015.1
20260503071548 0 139 0.0 3.2 0.00 0.00 0.00 97 1015.2
20260503071051 0 150 1.6 4.8 0.00 0.00 0.00 97 1015.2
20260503070815 0 100 3.2 4.8 0.00 0.00 0.00 96 1015.1
20260503070325 0 100 0.0 3.2 0.00 0.00 0.00 96 1015.1
20260503055047 0 89 3.2 4.8 0.00 0.00 0.00 95 1015.1
20260503054548 0 84 3.2 4.8 0.00 0.00 0.00 95 1015.2
20260503054050 0 91 3.2 3.2 0.00 0.00 0.00 95 1015.2
20260503053549 0 89 0.0 3.2 0.00 0.00 0.00 95 1015.1
20260503053047 0 73 3.2 3.2 0.00 0.00 0.00 95 1015.3
20260503052552 0 57 1.6 4.8 0.00 0.00 0.00 95 1015.5
20260503052310 0 44 1.6 4.8 0.00 0.00 0.00 95 1015.5
20260503051548 0 89 0.0 3.2 0.00 0.00 0.00 94 1015.4
20260503051052 0 84 3.2 4.8 0.00 0.00 0.00 94 1015.3
20260503050602 0 78 3.2 4.8 0.00 0.00 0.00 94 1015.6
20260503050047 0 72 1.6 4.8 0.00 0.00 0.00 94 1015.5
20260503045553 0 73 3.2 3.2 0.00 0.00 0.00 94 1015.4
20260503045049 0 73 1.6 4.8 0.00 0.00 0.00 94 1015.5
20260503044547 0 68 0.0 4.8 0.00 0.00 0.00 94 1015.5
20260503044313 0 71 3.2 4.8 0.00 0.00 0.00 93 1015.5
20260503043547 0 89 0.0 4.8 0.00 0.00 0.00 93 1015.6
20260503043310 0 80 1.6 3.2 0.00 0.00 0.00 93 1015.6
20260503042550 0 94 1.6 3.2 0.00 0.00 0.00 93 1015.4